Regional Weather Roundup
Issued by NWS

Home | Current Version | Previous Version | Graphics & Text | Print | Product List | Glossary On
Versions: 1 2 3 4 5 6 7 8 9 10 11 12 13 14 15 16 17 18 19 20 21 22 23 24 25 26 27 28 29 30 31 32 33 34 35 36 37 38 39 40 41 42 43 44 45 46 47 48 49 50
000
ASUS43 KIND 270409
RWRIN

WEATHER ROUNDUP FOR INDIANA
NATIONAL WEATHER SERVICE INDIANAPOLIS IN
1200 AM EDT THU APR 27 2017

NOTE: "FAIR" INDICATES FEW OR NO CLOUDS BELOW 12,000 FEET WITH NO
SIGNIFICANT WEATHER AND/OR OBSTRUCTIONS TO VISIBILITY.

* - STATION DOES NOT REPORT WEATHER SUCH AS PRECIPITATION OR FOG.

+ - STATION NOT QUALITY CONTROLLED BY THE NATIONAL WEATHER SERVICE.
    USE DATA WITH CAUTION...ESPECIALLY DEWPOINT AND RELATIVE
    HUMIDITY OBSERVATIONS.

INZ001>003-010>013-019-020-270500-
NORTHWEST INDIANA

CITY           SKY/WX    TMP DP  RH WIND       PRES   REMARKS
GARY /AIRPORT/ RAIN      64  62  94 SE6       29.46F
KNOX *+        CLOUDY    61  50  67 SW5       29.50F
LA PORTE +     CLOUDY    61  59  94 SW5       29.50F
MICHIGAN CITY+ RAIN      59  59 100 SW5       29.49F
MONTICELLO +   CLOUDY    61  59  94 CALM      29.49F
RENSSELAER +   RAIN      61  59  94 SW3       29.49F
VALPARAISO     LGT RAIN  62  60  93 W5        29.48F

$$

LMZ046-743>745-270500-
SOUTHERN LAKE MICHIGAN

STATION/POSITION TIME  TEMP    WIND        PRES    WAVE
                       AIR SEA DIR/SP/G            HT
                 (UTC) (F)     (DEG/KT/KT) (MB)    (FT)
BURNS HARBOR     0342   62        CALM      998.6F
MICHIGAN CITY    0340   59     280/  3/  4   N/A
5NW MICH CITY    0400   54 49                N/A     1

$$

INZ004-005-014>016-021>024-270500-
NORTH CENTRAL INDIANA

CITY           SKY/WX    TMP DP  RH WIND       PRES   REMARKS
GOSHEN         MOCLDY    64  59  83 SE7       29.47F
LOGANSPORT +   MOCLDY    63  59  88 CALM      29.50F
PERU/GRISSOM   MOCLDY    63  63 100 SW6       29.50R
ROCHESTER +    CLOUDY    66  63  88 W5        29.51R
SOUTH BEND     TSTM      62  59  90 S7        29.51R
WARSAW +       PTCLDY    63  59  88 CALM      29.49S

$$

INZ006>009-017-018-025>027-270500-
NORTHEAST INDIANA

CITY           SKY/WX    TMP DP  RH WIND       PRES   REMARKS
ANGOLA *+      CLEAR     64  55  72 SE6       29.50F
AUBURN +       CLOUDY    61  57  88 E5        29.51F
FORT WAYNE     MOCLDY    62  58  86 SE3       29.51F
HUNTINGTON +   PTCLDY    61  60  96 SE3       29.50F
KENDALLVILLE + PTCLDY    62  57  85 SE7       29.51S

$$

INZ028-029-035-036-043>045-051>053-270500-
WEST CENTRAL INDIANA

CITY           SKY/WX    TMP DP  RH WIND       PRES   REMARKS
CRAWFORDSVL +  CLOUDY    59  59 100 W6        29.50S
GREENCASTLE +  CLOUDY    59  59 100 CALM      29.52S
LAFAYETTE      LGT RAIN  60  60 100 W5        29.50R
TERRE HAUTE    CLOUDY    61  58  90 N3        29.51S

$$

INZ030>032-037>040-046>048-054>057-064-065-270500-
CENTRAL INDIANA

CITY           SKY/WX    TMP DP  RH WIND       PRES   REMARKS
CP ATTERBURY + CLOUDY    70  54  56 S7        29.53S
FISHERS *+     MOCLDY    66  59  77 S10       29.51F
FRANKFORT +    MOCLDY    63  61  92 CALM      29.51F
GREENWOOD *+   CLOUDY    72  52  49 S13       29.53S
INDIANAPOLIS   MOCLDY    70  56  61 S14       29.49F
-EAGLE CREEK   CLOUDY    64  57  78 SE5       29.49F
KOKOMO +       CLOUDY    62  60  93 SE7       29.51S
MARION +       CLOUDY    61  61 100 SE7       29.52S
MT COMFORT *+  PTCLDY    70  54  56 S9        29.52S
SHELBYVILLE    CLOUDY    73  52  47 S10       29.53R
ZIONSVILLE +   CLOUDY    60  58  96 SE6       29.51F

$$

INZ033-034-041-042-049-050-058-059-270500-
EAST CENTRAL INDIANA

CITY           SKY/WX    TMP DP  RH WIND       PRES   REMARKS
MUNCIE         PTCLDY    73  52  47 S10       29.52S
RICHMOND +     CLOUDY    64  50  59 SE9       29.57S

$$

INZ060-061-067>069-081>083-085>088-270500-
SOUTHWEST INDIANA

CITY           SKY/WX    TMP DP  RH WIND       PRES   REMARKS
EVANSVILLE     LGT RAIN  64  56  75 W7        29.57R
HUNTINGBURG *+ CLOUDY    64  58  80 CALM      29.56S
WASHINGTON +   CLOUDY    63  55  75 W5        29.54F

$$

INZ062-063-066-070>080-084-089>092-270500-
SOUTH CENTRAL AND SOUTHEAST INDIANA

CITY           SKY/WX    TMP DP  RH WIND       PRES   REMARKS
BEDFORD +      CLOUDY    73  52  46 S12       29.53F
BLOOMINGTON    CLOUDY    73  54  51 S18G28    29.51F
MADISON *+     CLEAR     70  52  52 S9        29.59R
NORTH VERNON + CLOUDY    70  54  56 S8        29.55S

$$





USA.gov is the U.S. government's official web portal to all federal, state and local government web resources and services.